Reflectivity
-20 -20 -20 -20 -20 -20 -20 -20 -20 -20 -20 -20 -20 -20 -20 -20 -20 -20 -20 -20 -20 -20
-20 -20 -20 -20 -20 -20 -20 -20 -20 -20 -20 -20 -20 -20 -20 -20 -20 -20 -20 -20 -20 -20
-20 -20 -20 -20 -20 -20 -20 -20 -20 -20 -20 -20 -20 -20 -20 -20 -20 -20 -20 -20 -20 -20
-20 -20 -20 -20 -20 -20 -20 -20 -20 -20 -20 -20 -20 -20 -20 -20 -20 -20 -20 -20 -20 -20
-20 -20 -20 -20 -20 -20 -20 -20 -20 -20 -20 -20 -20 -20 -20 -20 -20 -20 -20 -20 -20 -20
-20 -20 -20 -20 -20 -20 -20 -20 -20 -20 -20 -20 -20 -20 -20 -20 -20 -20 -20 -20 -20 -20
-20 -20 -20 -20 -20 -20 -20 -20 -20 -20 -20 -20 -20 -20 -20 -20 -20 -20 -20 -20 -20 -20
-20 -20 -20 -20 -20 -20 -20 -20 -20 -20 -20 -20 -20 -20 -20 -20 -20 -20 -20 -20 -20 -20
-20 -20 -20 -20 -20 -20 -20 -20 -20 -20 -20 -20 -20 -20 -20 -20 -20 -20 -20 -20 -20 -20
-20 -20 -20 -20 -20 -20 -20 -20 -20 -20 -20 -20 -20 -20 -20 -20 -15 -9 1 15 20 5
-20 -20 -20 -20 -20 -20 -20 -20 -20 -20 -20 -20 -20 -20 -20 -20 -20 -20 -20 -20 -20 -18
-20 -20 -20 -20 -20 -20 -20 -20 -20 -20 -20 -20 -20 -20 -20 -20 -20 -20 -20 -20 -20 -14
-20 -20 -20 -20 -20 -20 -20 -20 -20 -20 -20 -20 -20 -20 -20 -20 -20 -20 -20 -20 -20 -20
-20 -20 -20 -20 -20 -20 -20 -20 -20 -20 -20 -20 -20 -20 -20 -20 -20 -20 -20 -20 -20 -20
Wind_Speed
7 5 5 5 4 4 4 3 3 3 4 4 4 4 4 3 4 4 3 6 5 4
7 7 6 6 5 4 5 4 4 5 5 5 5 5 5 4 5 5 5 5 5 5
7 7 7 6 6 6 6 6 6 6 6 6 6 6 5 5 5 6 5 5 6 6
6 6 6 6 7 6 6 7 7 7 7 7 7 6 6 6 6 7 7 7 7 8
6 5 6 7 6 6 7 6 7 7 7 7 7 7 7 7 7 7 8 8 8 9
6 5 5 6 6 5 6 6 7 7 7 8 7 7 7 8 8 8 9 8 9 9
10 9 8 8 7 7 6 6 6 7 7 7 8 8 8 8 9 9 9 9 9 9
9 9 9 9 8 7 6 6 6 7 8 8 7 6 7 8 8 9 10 10 10 9
10 10 10 9 9 8 8 8 7 7 7 8 6 7 6 8 8 10 11 10 10 10
9 9 9 9 8 8 7 7 7 7 8 8 8 11 12 13 8 8 9 10 11 11
7 7 7 7 7 7 6 7 6 6 7 7 7 10 11 12 9 8 9 9 11 11
7 8 8 8 8 7 7 7 8 8 8 10 9 12 12 10 8 9 9 9 9 10
8 8 9 9 9 7 8 9 8 10 9 11 11 14 15 13 7 10 8 7 7 16
9 10 10 10 9 10 10 10 10 11 11 12 11 12 16 14 8 8 9 8 7 8
Wind_Direction
230 235 234 243 246 256 259 258 237 241 255 259 252 256 254 264 262 266 259 264 271 280
228 231 238 239 242 250 252 254 245 243 256 255 256 254 261 260 267 254 255 259 262 263
235 232 241 246 241 241 255 249 247 249 253 257 256 257 253 259 262 263 260 252 255 257
254 254 246 247 254 249 252 256 254 258 258 260 262 260 257 260 266 267 267 265 253 258
283 273 260 263 257 264 267 261 263 269 265 265 265 265 266 265 265 257 259 258 256 255
1 338 307 293 291 291 288 284 283 272 272 275 274 270 267 266 267 266 265 262 261 263
34 25 12 1 354 340 329 315 300 290 282 278 278 278 279 279 278 276 269 266 265 264
34 34 30 26 19 9 353 333 319 306 294 290 287 280 291 299 293 281 279 278 268 257
25 22 17 12 5 0 353 351 340 336 328 321 310 332 330 302 287 287 284 277 273 277
18 13 8 360 356 354 347 340 339 335 334 326 322 318 314 305 289 286 287 290 286 281
0 350 343 334 335 330 327 325 318 310 308 303 298 293 294 302 294 280 276 278 283 277
341 330 323 318 318 314 310 303 296 293 291 292 296 302 302 296 292 287 284 288 292 292
318 309 308 308 306 299 294 292 294 292 281 272 273 272 269 271 277 281 279 265 272 272
309 303 298 296 294 291 288 286 285 284 282 279 280 284 284 280 282 281 282 283 269 264